• en Suisse
  • Liste des pays
  • À 7 jours
  • Température de l'eau
  • Carte satellitaire
  • Carte météo
  • Widgets météo
  • user-avatar
    Se connecter

    Météo par heure à Beverly

    Ce jour, 23 Mai, Mercredi

    Heure Température Précipitation Vent Pression Humidité
    00:00 +9°C° 0 mm 6 m/s 767 mmHg 89%
    01:00 +8°C° 0 mm 6 m/s 767 mmHg 89%
    02:00 +8°C° 0 mm 6 m/s 767 mmHg 89%
    03:00 +8°C° 0 mm 6 m/s 767 mmHg 90%
    04:00 +9°C° 0 mm 6 m/s 767 mmHg 89%
    05:00 +9°C° 0 mm 6 m/s 768 mmHg 89%
    06:00 +9°C° 0 mm 6 m/s 768 mmHg 88%
    07:00 +10°C° 0 mm 6 m/s 768 mmHg 86%
    08:00 +11°C° 0 mm 6 m/s 768 mmHg 84%
    09:00 +11°C° 0 mm 6 m/s 769 mmHg 82%
    10:00 +13°C° 0 mm 6 m/s 769 mmHg 79%
    11:00 +14°C° 0 mm 6 m/s 768 mmHg 76%
    12:00 +15°C° 0 mm 6 m/s 768 mmHg 73%
    13:00 +15°C° 0 mm 6 m/s 768 mmHg 73%
    14:00 +16°C° 0 mm 6 m/s 768 mmHg 72%
    15:00 +16°C° 0 mm 6 m/s 768 mmHg 72%
    16:00 +15°C° 0 mm 6 m/s 768 mmHg 74%
    17:00 +14°C° 0 mm 6 m/s 768 mmHg 77%
    18:00 +14°C° 0 mm 5 m/s 768 mmHg 79%
    19:00 +12°C° 0 mm 5 m/s 768 mmHg 84%
    20:00 +10°C° 0 mm 5 m/s 769 mmHg 88%
    21:00 +8°C° 0 mm 4 m/s 769 mmHg 92%
    22:00 +8°C° 0 mm 4 m/s 769 mmHg 92%
    23:00 +8°C° 0 mm 4 m/s 769 mmHg 93%

    Demain, 24 Mai, Jeudi

    Heure Température Précipitation Vent Pression Humidité
    00:00 +8°C° 0 mm 4 m/s 769 mmHg 93%
    01:00 +8°C° 0 mm 4 m/s 768 mmHg 93%
    02:00 +8°C° 0 mm 5 m/s 768 mmHg 93%
    03:00 +7°C° 0 mm 5 m/s 768 mmHg 93%
    04:00 +8°C° 0 mm 5 m/s 768 mmHg 91%
    05:00 +9°C° 0 mm 5 m/s 768 mmHg 89%
    06:00 +10°C° 0 mm 5 m/s 767 mmHg 87%
    07:00 +13°C° 0 mm 5 m/s 767 mmHg 84%
    08:00 +14°C° 0 mm 5 m/s 767 mmHg 80%
    09:00 +16°C° 0 mm 5 m/s 767 mmHg 76%
    10:00 +17°C° 0 mm 5 m/s 767 mmHg 72%
    11:00 +19°C° 0 mm 5 m/s 767 mmHg 68%
    12:00 +19°C° 0 mm 5 m/s 767 mmHg 65%
    13:00 +19°C° 0 mm 5 m/s 766 mmHg 65%
    14:00 +19°C° 0 mm 6 m/s 766 mmHg 65%
    15:00 +19°C° 0 mm 6 m/s 766 mmHg 65%
    16:00 +17°C° 0 mm 5 m/s 766 mmHg 68%
    17:00 +16°C° 0 mm 5 m/s 766 mmHg 72%
    18:00 +15°C° 0 mm 5 m/s 766 mmHg 75%
    19:00 +14°C° 0 mm 5 m/s 766 mmHg 79%
    20:00 +12°C° 0 mm 5 m/s 766 mmHg 83%
    21:00 +10°C° 0 mm 5 m/s 766 mmHg 87%
    22:00 +10°C° 0 mm 5 m/s 765 mmHg 87%
    23:00 +10°C° 0 mm 5 m/s 765 mmHg 88%

    Après-demain, 25 Mai, Vendredi

    Heure Température Précipitation Vent Pression Humidité
    00:00 +10°C° 0 mm 6 m/s 765 mmHg 88%
    01:00 +10°C° 0,7 mm 6 m/s 764 mmHg 89%
    02:00 +10°C° 0,7 mm 6 m/s 764 mmHg 90%
    03:00 +10°C° 0,7 mm 6 m/s 764 mmHg 91%
    04:00 +10°C° 1,6 mm 6 m/s 764 mmHg 93%
    05:00 +11°C° 1,6 mm 6 m/s 764 mmHg 94%
    06:00 +11°C° 1,6 mm 6 m/s 763 mmHg 96%
    07:00 +11°C° 1,5 mm 6 m/s 764 mmHg 96%
    08:00 +13°C° 1,5 mm 6 m/s 764 mmHg 95%
    09:00 +13°C° 1,5 mm 6 m/s 764 mmHg 95%
    10:00 +14°C° 0,1 mm 5 m/s 764 mmHg 94%
    11:00 +15°C° 0,1 mm 5 m/s 764 mmHg 93%
    12:00 +15°C° 0,1 mm 5 m/s 764 mmHg 92%
    13:00 +15°C° 0,1 mm 5 m/s 764 mmHg 91%
    14:00 +16°C° 0,1 mm 5 m/s 764 mmHg 90%
    15:00 +16°C° 0,1 mm 5 m/s 764 mmHg 90%
    16:00 +15°C° 0 mm 5 m/s 764 mmHg 90%
    17:00 +15°C° 0 mm 4 m/s 765 mmHg 91%
    18:00 +14°C° 0 mm 4 m/s 765 mmHg 91%
    19:00 +14°C° 0 mm 4 m/s 765 mmHg 92%
    20:00 +13°C° 0 mm 4 m/s 766 mmHg 93%
    21:00 +12°C° 0 mm 4 m/s 766 mmHg 94%
    22:00 +12°C° 0 mm 4 m/s 766 mmHg 94%
    23:00 +12°C° 0 mm 5 m/s 766 mmHg 93%

    26 Mai, Samedi

    Heure Température Précipitation Vent Pression Humidité
    00:00 +12°C° 0 mm 5 m/s 766 mmHg 93%
    01:00 +12°C° 0 mm 5 m/s 766 mmHg 92%
    02:00 +12°C° 0 mm 5 m/s 766 mmHg 91%
    03:00 +12°C° 0 mm 5 m/s 766 mmHg 90%
    04:00 +12°C° 0,1 mm 5 m/s 766 mmHg 89%
    05:00 +11°C° 0,1 mm 6 m/s 766 mmHg 88%
    06:00 +13°C° 0,1 mm 6 m/s 767 mmHg 87%
    07:00 +14°C° 0,1 mm 6 m/s 767 mmHg 85%
    08:00 +15°C° 0,1 mm 6 m/s 767 mmHg 83%
    09:00 +16°C° 0,1 mm 6 m/s 767 mmHg 81%
    10:00 +17°C° 0 mm 6 m/s 767 mmHg 81%
    11:00 +17°C° 0 mm 7 m/s 767 mmHg 80%
    12:00 +18°C° 0 mm 7 m/s 767 mmHg 79%
    13:00 +18°C° 0 mm 7 m/s 767 mmHg 79%
    14:00 +18°C° 0 mm 7 m/s 767 mmHg 78%
    15:00 +18°C° 0 mm 7 m/s 767 mmHg 77%
    16:00 +17°C° 0 mm 7 m/s 767 mmHg 78%
    17:00 +17°C° 0 mm 7 m/s 767 mmHg 80%
    18:00 +16°C° 0 mm 7 m/s 767 mmHg 81%
    19:00 +15°C° 0 mm 7 m/s 767 mmHg 82%
    20:00 +14°C° 0 mm 7 m/s 767 mmHg 84%
    21:00 +13°C° 0 mm 6 m/s 768 mmHg 85%
    22:00 +12°C° 0 mm 7 m/s 768 mmHg 84%
    23:00 +12°C° 0 mm 7 m/s 767 mmHg 83%

    27 Mai, Dimanche

    Heure Température Précipitation Vent Pression Humidité
    00:00 +12°C° 0 mm 7 m/s 767 mmHg 81%
    01:00 +12°C° 0 mm 7 m/s 767 mmHg 82%
    02:00 +12°C° 0 mm 7 m/s 767 mmHg 82%
    03:00 +12°C° 0 mm 7 m/s 767 mmHg 83%
    04:00 +14°C° 0 mm 7 m/s 766 mmHg 84%
    05:00 +14°C° 0 mm 7 m/s 766 mmHg 85%
    06:00 +14°C° 0 mm 7 m/s 766 mmHg 85%
    07:00 +15°C° 0 mm 7 m/s 766 mmHg 83%
    08:00 +17°C° 0 mm 7 m/s 766 mmHg 81%
    09:00 +18°C° 0 mm 7 m/s 767 mmHg 78%
    10:00 +18°C° 0 mm 7 m/s 767 mmHg 77%
    11:00 +18°C° 0 mm 7 m/s 766 mmHg 77%
    12:00 +20°C° 0 mm 7 m/s 766 mmHg 76%
    13:00 +20°C° 0 mm 7 m/s 766 mmHg 75%
    14:00 +20°C° 0 mm 7 m/s 766 mmHg 74%
    15:00 +20°C° 0 mm 7 m/s 765 mmHg 73%
    16:00 +19°C° 0 mm 6 m/s 765 mmHg 74%
    17:00 +17°C° 0 mm 6 m/s 765 mmHg 76%
    18:00 +17°C° 0 mm 6 m/s 765 mmHg 78%
    19:00 +15°C° 0 mm 6 m/s 765 mmHg 82%
    20:00 +14°C° 0 mm 5 m/s 765 mmHg 86%
    21:00 +12°C° 0 mm 5 m/s 766 mmHg 90%
    22:00 +12°C° 0 mm 5 m/s 765 mmHg 92%
    23:00 +12°C° 0 mm 5 m/s 765 mmHg 93%

    28 Mai, Lundi

    Heure Température Précipitation Vent Pression Humidité
    00:00 +11°C° 0 mm 4 m/s 765 mmHg 95%
    01:00 +11°C° 0 mm 4 m/s 765 mmHg 95%
    02:00 +11°C° 0 mm 4 m/s 764 mmHg 96%
    03:00 +11°C° 0 mm 4 m/s 764 mmHg 97%
    04:00 +12°C° 0 mm 4 m/s 764 mmHg 95%
    05:00 +13°C° 0 mm 5 m/s 764 mmHg 93%
    06:00 +14°C° 0 mm 5 m/s 764 mmHg 92%
    07:00 +15°C° 0 mm 5 m/s 764 mmHg 89%
    08:00 +16°C° 0 mm 5 m/s 764 mmHg 86%
    09:00 +17°C° 0 mm 5 m/s 764 mmHg 82%
    10:00 +19°C° 0 mm 5 m/s 764 mmHg 81%
    11:00 +20°C° 0 mm 5 m/s 764 mmHg 79%
    12:00 +20°C° 0 mm 5 m/s 763 mmHg 77%
    13:00 +20°C° 0 mm 5 m/s 763 mmHg 78%
    14:00 +20°C° 0 mm 5 m/s 763 mmHg 78%
    15:00 +20°C° 0 mm 6 m/s 763 mmHg 79%
    16:00 +17°C° 0 mm 5 m/s 763 mmHg 82%
    17:00 +16°C° 0 mm 5 m/s 763 mmHg 85%
    18:00 +15°C° 0 mm 5 m/s 763 mmHg 88%
    19:00 +14°C° 0 mm 4 m/s 763 mmHg 89%
    20:00 +14°C° 0 mm 4 m/s 763 mmHg 91%
    21:00 +13°C° 0 mm 4 m/s 763 mmHg 92%
    22:00 +13°C° 0 mm 4 m/s 763 mmHg 93%
    23:00 +12°C° 0 mm 4 m/s 763 mmHg 94%
    Voir plus